Dalton, GA

8:06 AM EST on December 06, 2019 (GMT -0500)
Dalton Municipal

Weather History for KDNN - November, 2019

Change the Weather History Date:

Saturday, November 16, 2019

  Actual Average Record
Temperature  
Mean Temperature 48 °F -  
Max Temperature 60 °F 60 °F 77 °F (1985)
Min Temperature 37 °F 38 °F 16 °F (1969)
Degree Days  
Heating Degree Days 16    
Moisture  
Dew Point 29 °F    
Average Humidity 51    
Maximum Humidity 81    
Minimum Humidity 27    
Precipitation  
Precipitation 0.00 in - - ()
Sea Level Pressure  
Sea Level Pressure 30.11 in    
Wind  
Wind Speed 8 mph ()    
Max Wind Speed 13 mph    
Max Gust Speed 22 mph    
Visibility 10.0 miles    
Events      
Averages and records for this station are not official NWS values.
T = Trace of Precipitation, MM = Missing Value Source: Averaged Metar Reports

Daily Weather History Graph

Daily Weather History Graph

Search for Another Location

Airport or City:

Astronomy

Nov. 16, 2019 Rise Set
Actual Time 7:14 AM EST 5:33 PM EST
Civil Twilight 6:47 AM EST 6:00 PM EST
Nautical Twilight 6:16 AM EST 6:31 PM EST
Astronomical Twilight 5:46 AM EST 7:01 PM EST
Moon 9:10 PM EST (11/16) 11:02 AM EST (11/16)
Length of Visible Light 11h 13m
Length of Day
10h 19m
Waning Gibbous, 82% of the Moon is Illuminated
Nov 16
Waning Gibbous
Nov 19
Last Quarter
Nov 26
New
Dec 4
First Quarter
Dec 12
Full

Hourly Weather History & Observations

Time (EST) Temp. Windchill Dew Point Humidity Pressure Visibility Wind Dir Wind Speed Gust Speed Precip Events Conditions
12:15 AM 44.6 °F 40.2 °F 28.4 °F 53% 30.13 in 10.0 mi NNW 8.1 mph 16.1 mph N/A   Clear
12:35 AM 44.6 °F 38.8 °F 28.4 °F 53% 30.13 in 10.0 mi NNW 11.5 mph 16.1 mph N/A   Clear
1:15 AM 42.8 °F 38.0 °F 28.4 °F 57% 30.13 in 10.0 mi NNW 8.1 mph - N/A   Clear
1:35 AM 42.8 °F 37.0 °F 28.4 °F 57% 30.11 in 10.0 mi NNW 10.4 mph - N/A   Clear
1:55 AM 42.8 °F 38.0 °F 28.4 °F 57% 30.11 in 10.0 mi NNW 8.1 mph - N/A   Clear
2:15 AM 42.8 °F 37.0 °F 28.4 °F 57% 30.11 in 10.0 mi NNW 10.4 mph - N/A   Clear
2:35 AM 42.8 °F 37.0 °F 28.4 °F 57% 30.11 in 10.0 mi NNW 10.4 mph 16.1 mph N/A   Clear
2:55 AM 41.0 °F 34.7 °F 28.4 °F 61% 30.11 in 10.0 mi NNW 10.4 mph - N/A   Clear
3:15 AM 41.0 °F 34.3 °F 28.4 °F 61% 30.11 in 10.0 mi North 11.5 mph - N/A   Clear
3:35 AM 41.0 °F 35.8 °F 28.4 °F 61% 30.11 in 10.0 mi NNW 8.1 mph - N/A   Clear
3:55 AM 41.0 °F 34.3 °F 28.4 °F 61% 30.11 in 10.0 mi NNW 11.5 mph - N/A   Clear
4:15 AM 41.0 °F 35.2 °F 28.4 °F 61% 30.11 in 10.0 mi NNW 9.2 mph - N/A   Clear
4:35 AM 41.0 °F 33.9 °F 28.4 °F 61% 30.11 in 10.0 mi NNW 12.7 mph 18.4 mph N/A   Clear
4:55 AM 41.0 °F 34.7 °F 28.4 °F 61% 30.11 in 10.0 mi NNW 10.4 mph - N/A   Clear
5:15 AM 41.0 °F 35.2 °F 28.4 °F 61% 30.12 in 10.0 mi NNW 9.2 mph - N/A   Clear
5:35 AM 39.2 °F 31.6 °F 28.4 °F 65% 30.12 in 10.0 mi NNW 12.7 mph - N/A   Clear
5:55 AM 39.2 °F 33.0 °F 28.4 °F 65% 30.13 in 10.0 mi NNW 9.2 mph 17.3 mph N/A   Clear
6:15 AM 39.2 °F 31.6 °F 28.4 °F 65% 30.13 in 10.0 mi NNW 12.7 mph 21.9 mph N/A   Clear
6:35 AM 39.2 °F 32.5 °F 28.4 °F 65% 30.13 in 10.0 mi North 10.4 mph - N/A   Clear
6:55 AM 39.2 °F 33.6 °F 28.4 °F 65% 30.14 in 10.0 mi NNW 8.1 mph - N/A   Clear
7:15 AM 37.4 °F 30.8 °F 28.4 °F 70% 30.15 in 10.0 mi NNW 9.2 mph - N/A   Clear
7:35 AM 37.4 °F 31.4 °F 28.4 °F 70% 30.16 in 10.0 mi NNW 8.1 mph - N/A   Clear
7:55 AM 39.2 °F 33.0 °F 28.4 °F 65% 30.16 in 10.0 mi NNW 9.2 mph - N/A   Clear
8:15 AM 41.0 °F 35.2 °F 28.4 °F 61% 30.16 in 10.0 mi NNW 9.2 mph - N/A   Clear
8:35 AM 41.0 °F 35.2 °F 28.4 °F 61% 30.16 in 10.0 mi North 9.2 mph - N/A   Clear
8:55 AM 42.8 °F 37.5 °F 28.4 °F 57% 30.16 in 10.0 mi NNW 9.2 mph - N/A   Clear
9:35 AM 44.6 °F 39.2 °F 28.4 °F 53% 30.17 in 10.0 mi North 10.4 mph 17.3 mph N/A   Clear
9:55 AM 44.6 °F 39.7 °F 28.4 °F 53% 30.16 in 10.0 mi North 9.2 mph 19.6 mph N/A   Clear
10:15 AM 46.4 °F 41.1 °F 28.4 °F 50% 30.17 in 10.0 mi North 11.5 mph 16.1 mph N/A   Clear
10:35 AM 48.2 °F - 28.4 °F 46% 30.16 in 10.0 mi North 9.2 mph - N/A   Clear
10:55 AM 50.0 °F - 30.2 °F 47% 30.16 in 10.0 mi NNW 12.7 mph - N/A   Clear
11:15 AM 50.0 °F - 28.4 °F 43% 30.15 in 10.0 mi North 9.2 mph - N/A   Clear
11:35 AM 51.8 °F - 30.2 °F 44% 30.14 in 10.0 mi NNW 10.4 mph - N/A   Clear
11:55 AM 51.8 °F - 30.2 °F 44% 30.13 in 10.0 mi NW 8.1 mph - N/A   Clear
12:15 PM 53.6 °F - 28.4 °F 38% 30.13 in 10.0 mi NNW 9.2 mph - N/A   Clear
12:35 PM 53.6 °F - 28.4 °F 38% 30.11 in 10.0 mi NNW 11.5 mph - N/A   Clear
12:55 PM 55.4 °F - 28.4 °F 36% 30.11 in 10.0 mi NNW 8.1 mph 16.1 mph N/A   Clear
1:15 PM 57.2 °F - 28.4 °F 33% 30.10 in 10.0 mi NNW 8.1 mph - N/A   Clear
1:35 PM 57.2 °F - 28.4 °F 33% 30.09 in 10.0 mi North 8.1 mph - N/A   Clear
1:55 PM 59.0 °F - 28.4 °F 31% 30.09 in 10.0 mi North 8.1 mph - N/A   Clear
2:15 PM 59.0 °F - 26.6 °F 29% 30.08 in 10.0 mi North 8.1 mph - N/A   Clear
2:35 PM 59.0 °F - 26.6 °F 29% 30.07 in 10.0 mi NNE 6.9 mph - N/A   Clear
2:55 PM 60.8 °F - 26.6 °F 27% 30.08 in 10.0 mi NNW 9.2 mph - N/A   Clear
3:15 PM 60.8 °F - 26.6 °F 27% 30.07 in 10.0 mi North 6.9 mph - N/A   Clear
3:35 PM 60.8 °F - 26.6 °F 27% 30.07 in 10.0 mi North 6.9 mph - N/A   Clear
3:55 PM 59.0 °F - 24.8 °F 27% 30.07 in 10.0 mi North 9.2 mph - N/A   Clear
4:15 PM 59.0 °F - 24.8 °F 27% 30.07 in 10.0 mi North 6.9 mph - N/A   Clear
4:35 PM 59.0 °F - 24.8 °F 27% 30.07 in 10.0 mi North 4.6 mph - N/A   Clear
4:55 PM 57.2 °F - 26.6 °F 31% 30.07 in 10.0 mi NNW 8.1 mph - N/A   Clear
5:15 PM 55.4 °F - 28.4 °F 36% 30.07 in 10.0 mi NNW 6.9 mph - N/A   Clear
5:35 PM 53.6 °F - 28.4 °F 38% 30.07 in 10.0 mi NNW 5.8 mph - N/A   Clear
5:55 PM 51.8 °F - 28.4 °F 41% 30.08 in 10.0 mi Calm Calm - N/A   Clear
6:15 PM 51.8 °F - 28.4 °F 41% 30.08 in 10.0 mi Calm Calm - N/A   Clear
6:55 PM 50.0 °F - 28.4 °F 43% 30.09 in 10.0 mi NNW 5.8 mph - N/A   Clear
7:35 PM 50.0 °F - 28.4 °F 43% 30.09 in 10.0 mi NNW 5.8 mph - N/A   Clear
7:55 PM 50.0 °F - 28.4 °F 43% 30.09 in 10.0 mi NNW 5.8 mph - N/A   Clear
8:15 PM 48.2 °F - 28.4 °F 46% 30.09 in 10.0 mi NNW 5.8 mph - N/A   Clear
8:35 PM 46.4 °F 44.3 °F 28.4 °F 50% 30.10 in 10.0 mi NNW 4.6 mph - N/A   Clear
8:55 PM 46.4 °F 45.2 °F 28.4 °F 50% 30.10 in 10.0 mi North 3.5 mph - N/A   Clear
9:15 PM 44.6 °F - 28.4 °F 53% 30.10 in 10.0 mi Calm Calm - N/A   Clear
9:35 PM 42.8 °F - 30.2 °F 61% 30.10 in 10.0 mi Calm Calm - N/A   Clear
9:55 PM 42.8 °F - 30.2 °F 61% 30.10 in 10.0 mi Calm Calm - N/A   Clear
10:15 PM 41.0 °F - 32.0 °F 70% 30.10 in 10.0 mi Calm Calm - N/A   Clear
10:35 PM 41.0 °F - 32.0 °F 70% 30.10 in 10.0 mi Calm Calm - N/A   Clear
10:55 PM 39.2 °F - 32.0 °F 75% 30.10 in 10.0 mi Calm Calm - N/A   Clear
11:15 PM 39.2 °F - 32.0 °F 75% 30.10 in 10.0 mi Calm Calm - N/A   Clear
11:35 PM 37.4 °F - 32.0 °F 81% 30.10 in 10.0 mi Calm Calm - N/A   Clear
11:55 PM 37.4 °F - 32.0 °F 81% 30.10 in 10.0 mi Calm Calm - N/A   Clear